YV2968 KMSP-KMKE

Flight info

Callsign YV2968
Flight time 0h 51m
Altitude 29000
Route ZMBRO7 ODI DLL BAE
Aircraft C525/L-VGDW/C

Departure

Time 2026-05-09 03:50
Airport Minneapolis–Saint Paul International Airport / Wold–Chamberlain Field (KMSP)

Arrival

Time 2026-05-09 04:41
Airport General Mitchell International Airport (KMKE)
Time Latitude Longitude Altitude Speed Heading
2026-05-09 03:33 44.87820 -93.21744 822 ft 0 kts 180°
2026-05-09 03:44 44.87813 -93.21741 822 ft 3 kts 151°
2026-05-09 03:44 44.87796 -93.21693 821 ft 7 kts 69°
2026-05-09 03:44 44.87828 -93.21618 821 ft 10 kts 49°
2026-05-09 03:45 44.87828 -93.21512 822 ft 14 kts 121°
2026-05-09 03:45 44.87764 -93.21368 819 ft 20 kts 122°
2026-05-09 03:45 44.87677 -93.21167 818 ft 26 kts 122°
2026-05-09 03:45 44.87572 -93.20921 813 ft 32 kts 122°
2026-05-09 03:46 44.87443 -93.20689 808 ft 24 kts 146°
2026-05-09 03:46 44.87330 -93.20510 802 ft 25 kts 122°
2026-05-09 03:46 44.87245 -93.20316 800 ft 18 kts 121°
2026-05-09 03:46 44.87276 -93.20208 801 ft 0 kts 30°
2026-05-09 03:49 44.87278 -93.20206 801 ft 1 kts 29°
2026-05-09 03:49 44.87304 -93.20187 801 ft 6 kts 27°
2026-05-09 03:49 44.87369 -93.20183 803 ft 17 kts 321°
2026-05-09 03:49 44.87550 -93.20574 807 ft 82 kts 302°
2026-05-09 03:50 44.87924 -93.21470 1018 ft 117 kts 300°
2026-05-09 03:50 44.88171 -93.22611 1550 ft 136 kts 277°
2026-05-09 03:50 44.87955 -93.23891 2373 ft 137 kts 257°
2026-05-09 03:50 44.87638 -93.25221 2814 ft 159 kts 260°
2026-05-09 03:51 44.87301 -93.26840 3259 ft 183 kts 259°
2026-05-09 03:51 44.86947 -93.28653 3830 ft 201 kts 260°
2026-05-09 03:51 44.86577 -93.30595 4491 ft 212 kts 260°
2026-05-09 03:51 44.86194 -93.32622 5211 ft 219 kts 260°
2026-05-09 03:52 44.85795 -93.34714 5970 ft 224 kts 260°
2026-05-09 03:52 44.85422 -93.36840 6758 ft 225 kts 262°
2026-05-09 03:52 44.84625 -93.38731 7505 ft 240 kts 227°
2026-05-09 03:52 44.83079 -93.39695 8269 ft 256 kts 194°
2026-05-09 03:53 44.81298 -93.39317 9034 ft 269 kts 160°
2026-05-09 03:53 44.79859 -93.37671 9794 ft 273 kts 130°
2026-05-09 03:53 44.78784 -93.35523 10563 ft 271 kts 123°
2026-05-09 03:53 44.77784 -93.33298 11310 ft 269 kts 122°
2026-05-09 03:54 44.76786 -93.31070 12040 ft 268 kts 122°
2026-05-09 03:54 44.75793 -93.28889 12744 ft 267 kts 122°
2026-05-09 03:54 44.74786 -93.26721 13435 ft 266 kts 123°
2026-05-09 03:54 44.73779 -93.24583 14105 ft 265 kts 123°
2026-05-09 03:55 44.72764 -93.22453 14753 ft 264 kts 123°
2026-05-09 03:55 44.71729 -93.20301 15398 ft 263 kts 123°
2026-05-09 03:55 44.70702 -93.18179 16015 ft 263 kts 124°
2026-05-09 03:55 44.69675 -93.16069 16621 ft 262 kts 123°
2026-05-09 03:56 44.68652 -93.13977 17211 ft 261 kts 123°
2026-05-09 03:56 44.67624 -93.11880 17783 ft 261 kts 124°
2026-05-09 03:56 44.66595 -93.09786 18368 ft 259 kts 124°
2026-05-09 03:56 44.65567 -93.07698 18825 ft 263 kts 124°
2026-05-09 03:57 44.64518 -93.05571 19321 ft 265 kts 124°
2026-05-09 03:57 44.63472 -93.03451 19783 ft 269 kts 124°
2026-05-09 03:57 44.62399 -93.01285 20286 ft 270 kts 124°
2026-05-09 03:57 44.61330 -92.99125 20756 ft 271 kts 124°
2026-05-09 03:58 44.60254 -92.96954 21205 ft 275 kts 124°
2026-05-09 03:58 44.59162 -92.94753 21631 ft 278 kts 124°
2026-05-09 03:58 44.58055 -92.92524 22124 ft 278 kts 124°
2026-05-09 03:58 44.56956 -92.90312 22580 ft 280 kts 124°
2026-05-09 03:59 44.55834 -92.88058 22971 ft 284 kts 124°
2026-05-09 03:59 44.54704 -92.85786 23437 ft 284 kts 124°
2026-05-09 03:59 44.53566 -92.83504 23849 ft 287 kts 124°
2026-05-09 03:59 44.52423 -92.81211 24314 ft 287 kts 124°
2026-05-09 04:00 44.51278 -92.78919 24670 ft 291 kts 124°
2026-05-09 04:00 44.50109 -92.76578 25084 ft 293 kts 124°
2026-05-09 04:00 44.48940 -92.74239 25521 ft 293 kts 124°
2026-05-09 04:00 44.47767 -92.71896 25879 ft 296 kts 124°
2026-05-09 04:01 44.46580 -92.69525 26273 ft 297 kts 124°
2026-05-09 04:01 44.45383 -92.67136 26637 ft 300 kts 124°
2026-05-09 04:01 44.44173 -92.64723 26985 ft 302 kts 124°
2026-05-09 04:01 44.42971 -92.62331 27348 ft 304 kts 123°
2026-05-09 04:02 44.41740 -92.59879 27709 ft 305 kts 124°
2026-05-09 04:02 44.40512 -92.57437 28028 ft 309 kts 124°
2026-05-09 04:02 44.39274 -92.54977 28354 ft 311 kts 123°
2026-05-09 04:02 44.37997 -92.52443 28645 ft 315 kts 124°
2026-05-09 04:03 44.36698 -92.49863 28713 ft 328 kts 123°
2026-05-09 04:03 44.35346 -92.47183 28725 ft 343 kts 124°
2026-05-09 04:03 44.33925 -92.44350 28711 ft 356 kts 122°
2026-05-09 04:03 44.32579 -92.41348 28716 ft 368 kts 120°
2026-05-09 04:04 44.31243 -92.38231 28713 ft 379 kts 118°
2026-05-09 04:04 44.29868 -92.35003 28713 ft 390 kts 119°
2026-05-09 04:04 44.27005 -92.28318 28710 ft 406 kts 120°
2026-05-09 04:05 44.24058 -92.21481 28709 ft 419 kts 120°
2026-05-09 04:05 44.21019 -92.14468 28707 ft 429 kts 120°
2026-05-09 04:06 44.17868 -92.07221 28716 ft 437 kts 120°
2026-05-09 04:06 44.14706 -91.99972 28711 ft 442 kts 121°
2026-05-09 04:07 44.11500 -91.92644 28712 ft 446 kts 121°
2026-05-09 04:07 44.08257 -91.85251 28714 ft 448 kts 121°
2026-05-09 04:08 44.04985 -91.77809 28709 ft 451 kts 121°
2026-05-09 04:08 44.01731 -91.70430 28704 ft 453 kts 121°
2026-05-09 04:09 43.98430 -91.62963 28702 ft 454 kts 121°
2026-05-09 04:09 43.95115 -91.55484 28697 ft 454 kts 121°
2026-05-09 04:10 43.91829 -91.47986 28699 ft 454 kts 117°
2026-05-09 04:10 43.90715 -91.43928 28742 ft 450 kts 105°
2026-05-09 04:10 43.89809 -91.39786 28709 ft 451 kts 104°
2026-05-09 04:11 43.88078 -91.31376 28703 ft 450 kts 104°
2026-05-09 04:11 43.86375 -91.23060 28719 ft 449 kts 104°
2026-05-09 04:12 43.84644 -91.14694 28713 ft 449 kts 104°
2026-05-09 04:12 43.82925 -91.06370 28688 ft 449 kts 104°
2026-05-09 04:13 43.81199 -90.98055 28701 ft 448 kts 104°
2026-05-09 04:13 43.79469 -90.89755 28695 ft 448 kts 104°
2026-05-09 04:14 43.77728 -90.81448 28701 ft 448 kts 104°
2026-05-09 04:14 43.76001 -90.73242 28692 ft 448 kts 104°
2026-05-09 04:15 43.74253 -90.64973 28693 ft 447 kts 104°
2026-05-09 04:15 43.72493 -90.56678 28702 ft 447 kts 105°
2026-05-09 04:16 43.70729 -90.48398 28706 ft 447 kts 105°
2026-05-09 04:16 43.68967 -90.40162 28706 ft 447 kts 105°
2026-05-09 04:17 43.67195 -90.31908 28707 ft 447 kts 105°
2026-05-09 04:17 43.65412 -90.23640 28695 ft 447 kts 105°
2026-05-09 04:18 43.63621 -90.15366 28699 ft 447 kts 106°
2026-05-09 04:18 43.61830 -90.07121 28707 ft 447 kts 106°
2026-05-09 04:19 43.60045 -89.98941 28700 ft 447 kts 106°
2026-05-09 04:19 43.58241 -89.90701 28709 ft 447 kts 106°
2026-05-09 04:20 43.56435 -89.82487 28713 ft 447 kts 106°
2026-05-09 04:20 43.54565 -89.74268 28709 ft 448 kts 110°
2026-05-09 04:21 43.52300 -89.66315 28706 ft 448 kts 112°
2026-05-09 04:22 43.48812 -89.54317 28717 ft 449 kts 112°
2026-05-09 04:22 43.46494 -89.46323 28709 ft 450 kts 112°
2026-05-09 04:23 43.44170 -89.38306 28703 ft 451 kts 112°
2026-05-09 04:23 43.41842 -89.30282 28693 ft 447 kts 113°
2026-05-09 04:24 43.39540 -89.22372 28083 ft 441 kts 113°
2026-05-09 04:24 43.38395 -89.18443 27267 ft 445 kts 112°
2026-05-09 04:24 43.37252 -89.14528 26475 ft 448 kts 112°
2026-05-09 04:24 43.36084 -89.10530 25675 ft 447 kts 112°
2026-05-09 04:25 43.34940 -89.06621 24869 ft 440 kts 112°
2026-05-09 04:25 43.33807 -89.02759 24062 ft 433 kts 112°
2026-05-09 04:25 43.32693 -88.98962 23257 ft 427 kts 112°
2026-05-09 04:25 43.31593 -88.95219 22445 ft 422 kts 112°
2026-05-09 04:26 43.30497 -88.91497 21659 ft 418 kts 112°
2026-05-09 04:26 43.29427 -88.87870 20863 ft 413 kts 112°
2026-05-09 04:26 43.28354 -88.84232 20078 ft 409 kts 112°
2026-05-09 04:26 43.27291 -88.80640 19294 ft 406 kts 112°
2026-05-09 04:27 43.26239 -88.77087 18511 ft 403 kts 112°
2026-05-09 04:27 43.25193 -88.73558 17746 ft 399 kts 112°
2026-05-09 04:27 43.24152 -88.70054 16970 ft 392 kts 112°
2026-05-09 04:27 43.23149 -88.66678 16225 ft 385 kts 112°
2026-05-09 04:28 43.22141 -88.63294 15453 ft 379 kts 112°
2026-05-09 04:28 43.21158 -88.59993 14689 ft 373 kts 112°
2026-05-09 04:28 43.20097 -88.56770 13901 ft 369 kts 121°
2026-05-09 04:28 43.18376 -88.54318 13147 ft 357 kts 148°
2026-05-09 04:29 43.16209 -88.52708 12391 ft 347 kts 160°
2026-05-09 04:29 43.14015 -88.51492 11641 ft 341 kts 164°
2026-05-09 04:29 43.11807 -88.50432 10893 ft 336 kts 165°
2026-05-09 04:29 43.09595 -88.49442 10125 ft 326 kts 166°
2026-05-09 04:30 43.07475 -88.48528 9364 ft 316 kts 166°
2026-05-09 04:30 43.05440 -88.47662 8607 ft 298 kts 167°
2026-05-09 04:30 43.03565 -88.46851 7843 ft 273 kts 167°
2026-05-09 04:30 43.01817 -88.46085 7076 ft 257 kts 167°
2026-05-09 04:31 43.00149 -88.45346 6307 ft 246 kts 167°
2026-05-09 04:31 42.98579 -88.44640 5558 ft 237 kts 167°
2026-05-09 04:31 42.97049 -88.43938 4976 ft 223 kts 167°
2026-05-09 04:31 42.95636 -88.43269 4488 ft 210 kts 167°
2026-05-09 04:32 42.94275 -88.42612 4008 ft 208 kts 167°
2026-05-09 04:32 42.92900 -88.41952 3535 ft 212 kts 167°
2026-05-09 04:32 42.91493 -88.41286 3083 ft 212 kts 167°
2026-05-09 04:32 42.90146 -88.40658 2982 ft 197 kts 167°
2026-05-09 04:33 42.89046 -88.39642 2947 ft 197 kts 130°
2026-05-09 04:33 42.88643 -88.37882 2982 ft 193 kts 102°
2026-05-09 04:33 42.88528 -88.36057 2972 ft 189 kts 98°
2026-05-09 04:33 42.88469 -88.34283 2974 ft 185 kts 97°
2026-05-09 04:34 42.88422 -88.32549 2980 ft 182 kts 97°
2026-05-09 04:34 42.88380 -88.30840 2981 ft 180 kts 97°
2026-05-09 04:34 42.88341 -88.29144 2982 ft 178 kts 97°
2026-05-09 04:34 42.88585 -88.27500 2980 ft 180 kts 68°
2026-05-09 04:35 42.89149 -88.25987 2984 ft 178 kts 63°
2026-05-09 04:35 42.89539 -88.24425 2958 ft 171 kts 99°
2026-05-09 04:35 42.89156 -88.22992 2990 ft 156 kts 129°
2026-05-09 04:35 42.88598 -88.21790 3004 ft 153 kts 122°
2026-05-09 04:36 42.88669 -88.20316 2967 ft 164 kts 63°
2026-05-09 04:36 42.89423 -88.19108 2878 ft 168 kts 45°
2026-05-09 04:36 42.90266 -88.18007 2816 ft 169 kts 42°
2026-05-09 04:36 42.91118 -88.16907 2788 ft 166 kts 42°
2026-05-09 04:37 42.91950 -88.15836 2781 ft 163 kts 42°
2026-05-09 04:37 42.92611 -88.14623 2766 ft 157 kts 79°
2026-05-09 04:37 42.92813 -88.13180 2784 ft 159 kts 88°
2026-05-09 04:37 42.92958 -88.11516 2852 ft 194 kts 88°
2026-05-09 04:38 42.93101 -88.09541 2837 ft 223 kts 88°
2026-05-09 04:38 42.93152 -88.07430 2798 ft 216 kts 98°
2026-05-09 04:38 42.93037 -88.05468 2725 ft 200 kts 100°
2026-05-09 04:38 42.92899 -88.03554 2423 ft 201 kts 101°
2026-05-09 04:39 42.92764 -88.01668 2167 ft 198 kts 101°
2026-05-09 04:39 42.92636 -87.99839 1931 ft 184 kts 101°
2026-05-09 04:39 42.92532 -87.98212 1698 ft 162 kts 101°
2026-05-09 04:39 42.92643 -87.96751 1515 ft 150 kts 82°
2026-05-09 04:40 42.92932 -87.95457 1323 ft 135 kts 73°
2026-05-09 04:40 42.93254 -87.94340 1149 ft 121 kts 73°
2026-05-09 04:40 42.93525 -87.93311 999 ft 110 kts 75°
2026-05-09 04:40 42.93771 -87.92348 856 ft 103 kts 75°
2026-05-09 04:41 42.93988 -87.91451 731 ft 96 kts 75°
2026-05-09 04:41 42.94150 -87.90788 692 ft 23 kts 72°
2026-05-09 04:41 42.94264 -87.90720 689 ft 5 kts 41°
2026-05-09 04:41 42.94265 -87.90720 688 ft 0 kts 41°
2026-05-09 04:43 42.94276 -87.90707 688 ft 6 kts 41°
2026-05-09 04:43 42.94309 -87.90604 685 ft 17 kts 71°
2026-05-09 04:43 42.94357 -87.90403 680 ft 27 kts 70°
2026-05-09 04:44 42.94423 -87.90128 677 ft 33 kts 69°
2026-05-09 04:44 42.94501 -87.89811 673 ft 34 kts 69°
2026-05-09 04:44 42.94652 -87.89641 670 ft 31 kts
2026-05-09 04:44 42.94877 -87.89603 669 ft 33 kts
2026-05-09 04:45 42.95115 -87.89562 667 ft 34 kts
2026-05-09 04:45 42.95343 -87.89523 670 ft 31 kts
2026-05-09 04:45 42.95528 -87.89490 670 ft 22 kts
2026-05-09 04:45 42.95672 -87.89468 673 ft 19 kts
2026-05-09 04:46 42.95744 -87.89531 673 ft 14 kts 269°
2026-05-09 04:46 42.95776 -87.89677 673 ft 17 kts 290°
2026-05-09 04:46 42.95821 -87.89840 673 ft 11 kts 290°
2026-05-09 04:46 42.95825 -87.89873 673 ft 0 kts 271°